Location: Clifton Park
(41.4873°N, 81.8024°W)
Time: 18:12:25
(UTC+00:00)

Cosmos 44 Rocket - Pass Details

Date: 21 January 2020
Orbit: 660 x 730 km, 65.1° (Epoch: 21 February)

Event Time Altitude Azimuth Distance (km) Brightness Sun altitude
Exits shadow 10:45:39 67° 284° (WNW) 725 3.1 -22.8°
Maximum altitude 10:46:06 73° 240° (WSW) 701 3.1 -22.7°
Drops below altitude 10° 10:50:51 10° 156° (SSE) 2,100 6.2 -21.8°
Sets 10:53:11 0° 155° (SSE) 3,020 7.1 -21.4°
